Location: Andershausen
(51.8462°N, 9.8595°E)
Time: 11:43:37
(UTC+00:00)

SJ-12 - Pass Details

Date: 18 November 2025
Orbit: 517 x 528 km, 97.8° (Epoch: 10 December)

Event Time Altitude Azimuth Distance (km) Brightness Sun altitude
Rises 17:04:53 0° 175° (S) 2,643 7.4 -15.0°
Reaches altitude 10° 17:07:00 10° 180° (S) 1,757 6.5 -15.3°
Maximum altitude 17:10:44 56° 259° (W) 628 4.4 -15.9°
Drops below altitude 10° 17:14:29 10° 338° (NNW) 1,766 6.5 -16.4°
Sets 17:16:37 0° 343° (NNW) 2,657 7.4 -16.8°
